Location: Eimen
(51.8766°N, 9.7806°E)
Time: 10:58:00
(UTC+00:00)

SL-16 R/B - Pass Details

Date: 23 May 2024
Orbit: 842 x 845 km, 71.0° (Epoch: 23 June)

Event Time Altitude Azimuth Distance (km) Brightness Sun altitude
Rises 01:34:58 0° 326° (NW) 3,417 5.7 -11.5°
Reaches altitude 10° 01:37:31 10° 320° (NW) 2,478 4.9 -11.3°
Maximum altitude 01:42:51 43° 250° (WSW) 1,169 2.6 -10.8°
Drops below altitude 10° 01:48:10 10° 180° (S) 2,462 4.1 -10.4°
Enters shadow 01:49:14 - 177° (S) 2,851 4.5 -10.3°
